Location: Recife
(8.0585°S, 34.8848°W)
Time: 05:30:28
(UTC-03:00)

Courier 1B - Pass Details

Date: 22 April 2026
Orbit: 962 x 1209 km, 28.3° (Epoch: 14 May)

Event Time Altitude Azimuth Distance (km) Brightness Sun altitude
Rises 02:49:47 0° 293° (WNW) 3,768 - -37.8°
Reaches altitude 10° 02:52:25 10° 291° (WNW) 2,851 - -37.2°
Maximum altitude 02:59:24 71° 208° (SSW) 1,157 - -35.5°
Exits shadow 03:01:22 50° 144° (SE) 1,387 8.3 -35.0°
Drops below altitude 10° 03:06:53 10° 125° (SE) 3,045 10.6 -33.6°
Sets 03:09:48 0° 122° (ESE) 4,038 11.3 -32.9°
